www.pogodaiklimat.ru

Погода и климат >> Архив погоды >> Норвегия >> Utsira Fyr


ПОГОДА в Utsira Fyr

  • Прогноз погоды в Utsira Fyr
  • Монитор погоды в Utsira Fyr
  • Климат города

АРХИВ ПОГОДЫ в Utsira Fyr

Время (UTC), дата Ветер
(напр.,м/с)
 
Видим.   Явления Облачность Т
(С)
Тd
(С)
f
(%)
Тe
(С)
Тes
(С)
Комфортность P
(гПа)
Po
(гПа)
Тmin
(С)
Tmax
(С)
R
(мм)
R24
(мм)
S
(см)
01 14.10 ЮЗ 8 н/о н/о +12.8 +11.4 91 +10 +10 1009.4 1002.7
02 14.10 З 8
{10}
н/о н/о +12.8 +9.8 82 +10 +10 1009.5 1002.8
03 14.10 ЮЗ 6 н/о н/о +12.8 +10.5 86 +10 +10 1009.9 1003.2
06 14.10 ЮЗ 9
{11}
20 км 4/0
[]
+12.0 +10.4 90 +8 +8 1011.1 1004.3 +12.0 +13.4
07 14.10 ЮЗ 8
{10}
н/о н/о +11.9 +10.3 90 +9 +9 1011.5 1004.7
08 14.10 ЮЗ 8
{10}
н/о н/о +12.1 +9.8 86 +9 +9 1012.0 1005.2
09 14.10 З 8
{11}
20 км 8/0
[Ac und Cs]
+12.1 +9.1 82 +9 +9 1012.2 1005.4
10 14.10 ЮЗ 9
{10}
н/о н/о +12.6 +8.9 78 +9 +9 1012.6 1005.8
11 14.10 З 8
{11}
н/о н/о +12.5 +9.0 79 +9 +9 1013.2 1006.4
12 14.10 З 8
{11}
20 км 9/0
[Ac As]
+12.4 +8.7 78 +9 +10 1013.1 1006.3
13 14.10 З 8
{11}
н/о н/о +12.5 +9.0 79 +9 +9 1013.5 1006.7
14 14.10 З 9
{11}
н/о н/о +12.3 +8.8 79 +9 +9 1013.8 1007.0
15 14.10 З 8
{10}
15 км 10/0
[Ac As Cs]
+12.3 +8.8 79 +9 +9 1014.3 1007.5
16 14.10 З 7
{11}
н/о н/о +12.0 +8.5 79 +9 +9 1014.3 1007.5
17 14.10 З 8
{11}
н/о н/о +12.0 +7.9 76 +9 +9 1015.0 1008.2
18 14.10
{11}
15 км 9/0 2000 м
[Ac As Cs]
+9.0 1015.4 1008.6
19 14.10 З 7
{9}
н/о н/о +12.0 +8.3 78 +9 +9 1015.4 1008.6
20 14.10 З 8
{9}
н/о н/о +12.0 +8.9 81 +9 +9 1015.9 1009.1
21 14.10 З 7
{10}
15 км 10/0
[Ac As]
+12.0 +9.4 84 +9 +9 1016.2 1009.4
22 14.10 З 5
{9}
н/о н/о +11.9 +9.1 83 +9 +9 1016.2 1009.4
23 14.10 ЮЗ 6
{7}
н/о н/о +12.0 +9.4 84 +9 +9 1016.5 1009.7
00 15.10 ЮЗ 6
{10}
н/о н/о +12.0 +10.1 88 +9 +9 1016.5 1009.7
01 15.10 ЮЗ 4
{7}
н/о н/о +11.9 +10.0 88 +10 +10 1016.6 1009.8
02 15.10 ЮЗ 5
{6}
н/о н/о +11.8 +9.9 88 +9 +9 1016.4 1009.6
03 15.10 Ю 5
{7}
н/о н/о +12.0 +10.4 90 +9 +9 1015.9 1009.1
04 15.10 Ю 8
{10}
н/о н/о +12.1 +10.7 91 +9 +9 1015.3 1008.5
05 15.10 Ю 10
{13}
н/о н/о +12.2 +10.9 92 +8 +8 1014.0 1007.2
06 15.10 Ю 12
{16}
15 км {дождь} 10/6 600 м
[Sc Ac As]
+12.3 +10.7 90 +8 +8 1012.3 1005.5 +11.8 +12.3
07 15.10 Ю 14
{19}
н/о н/о +12.6 +11.3 92 +8 +8 1011.6 1004.8
08 15.10 Ю 15
{21}
н/о н/о +12.9 +11.6 92 +9 +9 1010.8 1004.1 0.3
09 15.10 Ю 15
{20}
10 км в посл. час дождь 10/10 300 м
[St]
+13.2 +12.1 93 +9 +9 1010.3 1003.6
10 15.10 ЮЗ 12
{20}
н/о н/о +13.2 +11.9 92 +10 +10 1009.7 1003.0
11 15.10 ЮЗ 12
{16}
н/о н/о +13.0 +11.7 92 +9 +9 1009.8 1003.1 0.2
12 15.10 Ю 10
{21}
6000 м дымка {снег, дождь} 10/5 200 м
[St As op]
+12.9 +11.5 91 +9 +9 1009.5 1002.8
13 15.10 Ю 11
{16}
н/о н/о +12.9 +11.5 91 +9 +9 1009.0 1002.3
14 15.10 Ю 12
{15}
н/о н/о +13.0 +11.4 90 +9 +9 1008.7 1002.0
15 15.10 Ю 10
{15}
10 км 10/8 200 м
[St Ac As]
+13.1 +11.7 91 +10 +10 1008.3 1001.6
16 15.10 Ю 10
{14}
н/о н/о +13.1 +11.7 91 +10 +10 1007.7 1001.0
17 15.10 Ю 11
{15}
н/о н/о +13.0 +11.6 91 +9 +9 1007.4 1000.7
18 15.10 Ю 12
{16}
15 км 10/5 300 м
[St Ac As]
+12.9 +11.5 91 +9 +9 1007.5 1000.8 +12.3 +13.4
19 15.10 ЮЗ 12
{16}
н/о н/о +13.0 +11.6 91 +9 +9 1007.8 1001.1
20 15.10 ЮЗ 12
{16}
н/о н/о +13.3 +11.5 89 +10 +10 1008.2 1001.5
21 15.10 З 13
{17}
15 км 10/6 300 м
[St Ac As]
+13.2 +11.4 89 +9 +9 1008.8 1002.1
22 15.10 З 11
{16}
н/о н/о +11.6 +8.3 80 +8 +8 1010.3 1003.5
23 15.10 З 11
{16}
н/о н/о +11.4 +7.7 78 +7 +7 1011.3 1004.5
00 16.10 СЗ 10
{17}
н/о н/о +11.0 +6.9 76 +7 +7 1011.9 1005.1
01 16.10 СЗ 8
{13}
н/о н/о +11.0 +6.6 74 +7 +7 1012.7 1005.9
02 16.10 СЗ 6
{10}
н/о н/о +10.5 +7.7 83 +7 +7 1013.0 1006.2
03 16.10 СЗ 7
{10}
н/о н/о +10.2 +7.8 85 +6 +6 1013.4 1006.6
04 16.10 С 7
{9}
н/о н/о +10.0 +7.8 86 +6 +6 1013.8 1007.0
05 16.10 СЗ 5
{9}
н/о н/о +10.3 +7.6 83 +7 +7 1013.7 1006.9
06 16.10 С 5
{13}
20 км 8/5 300 м
[Cu med, cong Ac trans Ci fib]
+10.0 +6.9 81 +7 +7 1014.0 1007.2 +10.0 +13.3
07 16.10 СЗ 3
{6}
н/о н/о +10.3 +7.0 80 +8 +8 1014.7 1007.9
08 16.10 СЗ 2
{6}
н/о н/о +10.3 +7.2 81 +9 +9 1016.0 1009.2
09 16.10 СЗ 3
{4}
20 км 9/8 300 м
[Sc Ac As]
+10.8 +7.3 79 +9 +9 1016.1 1009.3
10 16.10 З 1
{3}
н/о н/о +11.0 +6.9 76 +11 +11 1016.2 1009.4
11 16.10 В 1
{2}
н/о н/о +11.4 +6.9 74 +11 +11 1015.8 1009.0
12 16.10 З 2
{6}
25 км 10/5 300 м
[Sc Ac As]
+11.2 +6.8 74 +10 +10 1017.3 1010.5
13 16.10 СЗ 2
{4}
н/о н/о +11.2 +7.5 78 +10 +10 1017.7 1010.9
14 16.10 С 1
{3}
н/о н/о +10.9 +7.2 78 +11 +11 1017.3 1010.5 0.6
15 16.10 В 2
{3}
15 км слабый дождь 10/4 300 м
[Frnb As op]
+10.2 +8.0 86 +9 +9 1016.9 1010.1 2
16 16.10 В 6
{9}
н/о н/о +9.5 +7.3 86 +6 +6 1015.2 1008.3 2
17 16.10 В 8
{12}
н/о н/о +8.9 +6.7 86 +4 +4 1013.8 1006.9 2
18 16.10 В 7
{12}
10 км слабый дождь 10/9 300 м
[Frnb As op]
+8.9 +6.4 84 +5 +5 1013.7 1006.8 +11.4 6
19 16.10 В 6
{10}
н/о н/о +8.9 +6.7 86 +5 +5 1012.8 1005.9 0.5
20 16.10 В 6
{11}
н/о н/о +9.1 +7.1 87 +5 +5 1011.3 1004.5 1
21 16.10 В 9
{11}
10 км слабый дождь {гроза} 10/9 300 м
[Frnb As op]
+9.3 +7.8 90 +5 +5 1008.7 1001.9 0.4
22 16.10 В 8
{10}
н/о н/о +9.6 +7.9 89 +5 +5 1007.4 1000.6
23 16.10 В 7
{10}
н/о н/о +10.1 +8.5 90 +6 +6 1005.4 998.6 0.2
00 17.10 Ю 13
{18}
н/о н/о +12.7 +11.6 93 +9 +9 1003.8 997.1 3
01 17.10 Ю 13
{21}
н/о н/о +13.7 +12.1 90 +10 +10 1003.0 996.3 0.1
02 17.10 ЮЗ 11
{17}
н/о н/о +13.2 +11.1 87 +10 +10 1003.2 996.5 0.1
03 17.10 ЮЗ 12
{15}
н/о н/о +13.1 +10.6 85 +10 +10 1003.0 996.3
04 17.10 Ю 11
{16}
н/о н/о +12.9 +10.4 85 +9 +9 1002.6 995.9
05 17.10 ЮЗ 14
{18}
н/о н/о +12.2 +9.8 85 +8 +8 1002.2 995.5 0.6
06 17.10 ЮЗ 13
{21}
15 км в посл. час дождь 10/5 600 м
[Frnb As op]
+12.1 +10.0 87 +8 +8 1001.6 994.9 +8.9 +13.9 0.3
07 17.10 Ю 12
{19}
н/о н/о +11.8 +10.4 91 +8 +8 1001.2 994.5 0.2
08 17.10 ЮЗ 13
{19}
н/о н/о +12.0 +10.4 90 +8 +8 1001.0 994.3 1
09 17.10 Ю 12
{18}
5000 м слабая морось {дождь} 10/8 300 м
[Frnb As op]
+12.1 +10.4 89 +8 +8 1000.6 993.9 0.9
10 17.10 ЮЗ 12
{18}
н/о н/о +11.7 +10.3 91 +7 +7 1000.4 993.7 0.2
11 17.10 ЮЗ 13
{17}
н/о н/о +11.6 +10.4 92 +7 +7 999.8 993.1 1
12 17.10 ЮЗ 13
{19}
5000 м дождь 10/9 200 м
[Frnb As op]
+11.6 +10.5 93 +7 +7 999.1 992.4 0.3
13 17.10 ЮЗ 15
{20}
н/о н/о +11.8 +10.7 93 +7 +7 998.5 991.8 0.5
14 17.10 ЮЗ 14
{19}
н/о н/о +11.9 +10.8 93 +7 +7 997.6 990.9 1
15 17.10 ЮЗ 14
{20}
8000 м слабый дождь 10/8 200 м
[Frnb As op]
+12.1 +11.0 93 +8 +8 997.1 990.4 1
16 17.10 ЮЗ 13 н/о н/о +12.0 +11.2 95 +8 +8 997.0 990.3 0.9
17 17.10 ЮЗ 11
{15}
н/о н/о +12.0 +10.9 93 +8 +8 997.3 990.6 0.3
18 17.10 З 4
{20}
5000 м слабая морось {дождь} 10/8 200 м
[Frnb As op]
+11.9 +11.0 94 +10 +10 998.1 991.4 +11.4 +12.2 0.4
19 17.10 С 9
{11}
н/о н/о +12.1 +11.2 94 +9 +9 999.7 993.0
20 17.10 С 10
{12}
н/о н/о +12.1 +11.2 94 +8 +8 1001.4 994.7
21 17.10 С 11
{16}
10 км ливневой дождь {морось} 6/6 300 м
[Cb calv]
+11.9 +10.8 93 +8 +8 1003.3 996.6
22 17.10 С 13
{17}
н/о н/о +11.5 +9.8 89 +7 +7 1004.8 998.1
23 17.10 С 13
{16}
н/о н/о +11.2 +9.0 86 +7 +7 1006.2 999.4
00 18.10 С 12
{17}
н/о н/о +11.0 +8.4 84 +7 +7 1007.6 1000.8
01 18.10 С 12
{17}
н/о н/о +10.8 +7.9 82 +6 +6 1008.1 1001.3
02 18.10 С 13
{17}
н/о н/о +10.6 +7.1 79 +6 +6 1009.4 1002.6
03 18.10 С 12
{16}
н/о н/о +10.3 +6.5 77 +6 +6 1010.2 1003.4
04 18.10 С 12 н/о н/о +9.9 +5.9 76 +5 +5 1011.1 1004.3
05 18.10 СВ 11
{14}
н/о н/о +9.6 +6.0 78 +5 +5 1011.4 1004.6
06 18.10 СВ 9
{17}
30 км 1/1 1000 м
[Sc Ci fib]
+9.4 +6.1 80 +5 +5 1012.0 1005.2 +9.4 +12.3
07 18.10 СВ 7
{12}
н/о н/о +9.3 +6.0 80 +5 +5 1012.9 1006.1
08 18.10 СВ 6
{10}
н/о н/о +9.7 +5.7 76 +6 +6 1013.6 1006.8
09 18.10 СВ 6
{9}
55 км 3/0
[]
+10.0 +6.0 76 +7 +7 1014.0 1007.2
10 18.10 В 4
{7}
н/о н/о +10.3 +6.8 79 +8 +8 1014.6 1007.8
11 18.10 ЮВ 2
{5}
н/о н/о +10.9 +7.8 81 +10 +10 1015.0 1008.2
12 18.10 ЮВ 3
{12}
55 км 6/5 1000 м
[Sc Ci sp]
+11.7 +9.1 84 +10 +11 1015.2 1008.4
13 18.10 Ю 2
{3}
н/о н/о +12.4 +9.6 83 +11 +11 1015.4 1008.6
14 18.10 Ю 2
{3}
н/о н/о +12.1 +9.7 85 +11 +11 1015.4 1008.6
15 18.10 Ю 2
{4}
30 км 8/6 300 м
[Cu med, cong Ci sp]
+11.9 +9.6 86 +11 +11 1015.4 1008.6
16 18.10 ЮЗ 1
{2}
н/о н/о +11.3 +9.1 86 +11 +11 1015.5 1008.7
17 18.10 В 1
{2}
н/о н/о +10.6 +8.5 87 +10 +10 1015.7 1008.9
18 18.10 В 1
{4}
30 км 4/3 600 м
[Sc diur, vesp Ci sp]
+10.3 +8.6 89 +10 +10 1015.8 1009.0 +12.4
19 18.10 В 2
{3}
н/о н/о +10.2 +8.6 90 +9 +9 1016.1 1009.3
20 18.10 В 4
{5}
н/о н/о +9.9 +8.2 89 +7 +7 1016.1 1009.3
21 18.10 ЮВ 4
{6}
30 км ясно +9.7 +8.0 89 +7 +7 1016.2 1009.3
22 18.10 ЮВ 5
{7}
н/о н/о +9.7 +7.5 86 +6 +6 1016.0 1009.1
23 18.10 ЮВ 6
{7}
н/о н/о +8.8 +6.4 85 +5 +5 1016.0 1009.1
00 19.10 В 6
{8}
н/о н/о +8.5 +4.3 75 +5 +5 1016.0 1009.1
01 19.10 В 6
{8}
н/о н/о +8.7 +3.1 68 +5 +5 1015.8 1008.9
02 19.10 ЮВ 8
{11}
н/о н/о +9.4 +2.7 63 +5 +5 1015.4 1008.5
03 19.10 ЮВ 7
{10}
н/о н/о +9.6 +2.9 63 +6 +6 1015.1 1008.3
04 19.10 ЮВ 6
{9}
н/о н/о +10.1 +2.7 60 +7 +7 1015.0 1008.2
05 19.10 ЮВ 7
{10}
н/о н/о +9.7 +2.6 61 +6 +6 1014.7 1007.9
06 19.10 ЮВ 6
{11}
30 км 9/9 600 м
[Sc]
+9.9 +2.3 59 +7 +7 1014.4 1007.6 +8.4 +10.3
07 19.10 ЮВ 7
{9}
н/о н/о +10.1 +2.9 61 +7 +7 1014.3 1007.5
08 19.10 ЮВ 7
{11}
н/о н/о +10.5 +2.6 58 +7 +7 1014.3 1007.5
09 19.10 ЮВ 7
{11}
30 км 9/9 1000 м
[Sc]
+11.0 +1.3 51 +8 +8 1014.6 1007.8
10 19.10 ЮВ 8
{11}
н/о н/о +11.2 +1.5 51 +8 +8 1014.4 1007.6
11 19.10 ЮВ 9
{12}
н/о н/о +11.4 +2.5 54 +8 +8 1014.1 1007.3
12 19.10 ЮВ 10
{13}
30 км 10/5 1000 м
[Sc Ac As Cs]
+11.7 +3.0 55 +8 +8 1013.7 1006.9
13 19.10 ЮВ 8
{12}
н/о н/о +12.0 +3.8 57 +9 +9 1012.9 1006.1
14 19.10 ЮВ 9
{12}
н/о н/о +12.2 +3.7 56 +9 +9 1012.2 1005.4
15 19.10 ЮВ 9
{11}
30 км 10/0
[Ac As]
+12.2 +4.4 59 +9 +9 1011.9 1005.1
16 19.10 ЮВ 8
{12}
н/о н/о +12.2 +4.9 61 +9 +9 1011.3 1004.5
17 19.10 ЮВ 7
{11}
н/о н/о +11.6 +6.7 72 +9 +9 1011.1 1004.3 0.2
18 19.10 ЮВ 8
{12}
15 км слабый дождь 10/0
[As op]
+11.5 +7.2 75 +8 +8 1011.0 1004.2 +9.9 +12.3 0.1
19 19.10 ЮВ 9
{13}
н/о н/о +11.2 +7.7 79 +7 +7 1010.7 1003.9 0.1
20 19.10 ЮВ 8
{11}
н/о н/о +11.4 +7.7 78 +8 +8 1010.5 1003.7
21 19.10 ЮВ 10
{14}
10 км слабый дождь 10/5 300 м
[Frnb Ac lent]
+11.1 +8.0 81 +7 +7 1010.2 1003.4 0.3
22 19.10 ЮВ 8
{13}
н/о н/о +11.5 +8.2 80 +8 +8 1009.9 1003.1 0.1
23 19.10 ЮВ 9
{14}
н/о н/о +11.3 +8.2 81 +8 +8 1009.4 1002.6 0.5
00 20.10 ЮВ 9
{14}
н/о н/о +12.0 +8.3 78 +9 +9 1008.7 1002.0
01 20.10 ЮВ 9
{14}
н/о н/о +12.3 +8.2 76 +9 +9 1008.4 1001.7
02 20.10 ЮВ 10
{14}
н/о н/о +12.5 +8.2 75 +9 +9 1007.7 1001.0
03 20.10 ЮВ 9
{13}
н/о н/о +12.5 +8.4 76 +9 +9 1007.1 1000.4
04 20.10 ЮВ 9
{12}
н/о н/о +12.7 +8.2 74 +10 +10 1006.8 1000.1
05 20.10 ЮВ 10
{13}
н/о н/о +12.7 +8.0 73 +9 +9 1006.5 999.8
06 20.10 ЮВ 8
{15}
20 км 10/4 600 м
[Sc Ac As Cs]
+12.7 +8.2 74 +10 +10 1006.6 999.9 +11.1 +12.8
07 20.10 ЮВ 12
{16}
н/о н/о +12.3 +8.0 75 +8 +8 1006.4 999.7 0.3
08 20.10 ЮВ 11
{15}
н/о н/о +12.2 +7.7 74 +9 +9 1006.5 999.8 0.2
09 20.10 ЮВ 12
{17}
15 км в посл. час дождь 9/0
[As op Cs]
+12.7 +7.8 72 +9 +9 1006.6 999.9
10 20.10 ЮВ 10
{17}
н/о н/о +12.9 +8.0 72 +10 +10 1006.6 999.9
11 20.10 ЮВ 9
{13}
н/о н/о +12.8 +8.3 74 +10 +10 1007.0 1000.3
12 20.10 ЮВ 11
{17}
15 км слабый дождь 10/4 600 м
[Frnb As op Cs]
+12.5 +9.0 79 +9 +9 1006.8 1000.1 0.1
13 20.10 ЮВ 9
{15}
н/о н/о +12.3 +9.1 81 +9 +9 1007.1 1000.4 0.1
14 20.10 ЮВ 10
{13}
н/о н/о +12.6 +8.9 78 +9 +9 1007.2 1000.5
15 20.10 ЮВ 8
{11}
15 км в посл. час дождь 9/9 1000 м
[Sc Ac As]
+12.4 +9.2 81 +9 +9 1007.3 1000.6
16 20.10 ЮВ 8
{12}
н/о н/о +12.3 +9.1 81 +9 +9 1007.4 1000.7 0.1
17 20.10 ЮВ 8
{12}
н/о н/о +12.3 +8.4 77 +9 +9 1007.5 1000.8 0.1
18 20.10 ЮВ 9
{15}
15 км {дождь} 9/9 1000 м
[Sc]
+12.9 +7.6 70 +10 +10 1007.9 1001.2 +11.9 +13.0
19 20.10 ЮВ 8
{13}
н/о н/о +12.9 +7.8 71 +10 +10 1008.4 1001.7
20 20.10 ЮВ 10
{14}
н/о н/о +12.8 +7.3 69 +10 +10 1008.5 1001.8
21 20.10 ЮВ 12
{16}
15 км 9/9 1000 м
[Sc]
+13.0 +7.5 69 +10 +10 1008.4 1001.7
22 20.10 ЮВ 11
{16}
н/о н/о +12.9 +7.4 69 +10 +10 1008.5 1001.8
23 20.10 ЮВ 10
{16}
н/о н/о +12.7 +7.4 70 +9 +9 1008.7 1002.0
00 21.10 ЮВ 10
{16}
н/о н/о +12.7 +7.4 70 +9 +9 1008.7 1002.0

 

Местоположение метеостанции Utsira Fyr (Норвегия): широта 59.31 долгота 4.88 высота над уровнем моря 55 м.

В архиве по умолчанию представлена погода в Utsira Fyr за последнюю неделю. Архивные данные за месяц целиком и за предыдущие месяцы, начиная с января 2011 года, Вы можете получить, выбрав интересующий диапазон дат из раскрывающегося списка и нажав кнопку "Ввод!".

Внимание! Время в таблицах - всемирное. Для получения местного времени необходимо прибавить поправку, которая в Utsira Fyr равна 1 ч.

Смотрите также архив погоды в соседних городах и на ближайших метеорологических станциях:

Погода в Rovaer (Норвегия) (18 км)
Погода в Haugesund Lufthavn (Норвегия) (19 км)
Погода в Kvitsoy (Норвегия) (41 км)
Погода в Vats I Vindafjord (Норвегия) (52 км)
Погода в Stavanger (Норвегия) (62 км)
Погода в Stavanger Lufthavn (Норвегия) (65 км)
Погода в Fister-Sigmundstad (Норвегия) (67 км)
Погода в Slatteroy Fyr (Норвегия) (68 км)
Погода в Saerheim (Норвегия) (75 км)
Погода в Liarvatn (Норвегия) (76 км)

Пояснения к столбцам:

Ветер - указаны скорость ветра в м/с - средняя за 10 мин, порывы в срок и между сроками (в фигурных скобках) и направление, откуда дует ветер: С - северный, СВ - северо-восточный, В - восточный, ЮВ - юго-восточный, Ю - южный, ЮЗ - юго-западный, З - западный, СЗ - северо-западный.
Видимость - горизонтальная дальность видимости в метрах или километрах. При видимости от 1 до 10 км при отсутствии осадков обычно наблюдается дымка, при ухудшении видимости до 1 км и менее - туман. В сухую погоду видимость может ухудшаться дымом, пылью или мглою.
Явления - указаны атмосферные явления, наблюдавшиеся в срок или в последний час перед сроком; фигурными скобками обозначены явления, наблюдавшиеся между сроками (за 1-3 часа до срока); квадратными скобками обозначены град или гололедные отложения с указанием их диаметра в мм.
Облачность - указаны через наклонную черту общая и нижняя облачность в баллах и высота нижней границы облаков в метрах; квадратными скобками обозначены формы облаков: Ci - перистые, Cs - перисто-слоистые, Cc - перисто-кучевые, Ac - высококучевые, As - высокослоистые, Sc - слоисто-кучевые, Ns - слоисто-дождевые, Cu - кучевые, Cb - кучево-дождевые. Подробнее классификацию облаков см. в Атласе облаков (PDF).
T - Температура воздуха - температура, измеренная на высоте 2 м над землей.
Td - Температура точки росы - температура, при понижении до которой содержащийся в воздухе водяной пар достигнет насыщения.
f - Относительная влажность воздуха - влажноcть воздуха, измеренная на высоте 2 м над землей.
Te - Эффективная температура - температура, которую ощущает одетый по сезону человек в тени. Характеристика душности погоды. При расчете учитывается влияние влажности воздуха и скорости ветра на теплоощущения человека.
Tes - Эффективная температура на солнце - температура, которую ощущает человек, с поправкой на солнечный нагрев. Характеристика знойности погоды. Зависит от высоты солнца над горизонтом, облачности и скорости ветра. Ночью, в пасмурную погоду, а также при ветре 12 м/с и более поправка равна нулю.
P - Атмосферное давление - приведенное к уровню моря атмосферное давление.
Po - Атмосферное давление - измеренное на уровне метеостанции атмосферное давление.
Tmin - Минимальная температура - минимум температуры воздуха на высоте 2 м над землей.
Tmax - Максимальная температура - максимум температуры воздуха на высоте 2 м над землей.
R - Количество осадков - Количество выпавших осадков за период времени, мм. При наведении курсора мыши на число - период времени, за который выпало указанное количество осадков.
R24 - Количество осадков - Количество выпавших осадков за 24 часа, мм.
S - Снежный покров - Высота снежного покрова, см. При наведении курсора мыши на число - состояние снежного покрова и степень покрытия местности в баллах.